Tracking 19795 objects as of 20-Jul-2019
HD Live streaming from Space Station
objects crossing your sky now

NOAA 16 DEB

Track NOAA 16 DEB now!
10-day predictions


NORAD ID: 41509
Int'l Code: 2000-055MH
Perigee: 838.2 km
Apogee: 868.5 km
Inclination: 98.9 °
Period: 101.8 minutes
Semi major axis: 7224 km
RCS: Unknown
Launch date: September 21, 2000
Source: United States (US)
Launch site: AIR FORCE WESTERN TEST RANGE (AFWTR)

Note: This is SATELLITE DEBRIS
aabbcc
Your satellite tracking list
Your tracking list is empty




NASA's NSSDC Master Catalog

Two Line Element Set (TLE):
1 41509U 00055MH  19198.15982980 +.00000409 +00000-0 +23886-3 0  9992
2 41509 098.8609 276.6263 0020957 031.3823 328.8596 14.13866418171277
Source of the keplerian elements: AFSPC